Location: Sternwarte auf dem Internationalen Platz Vogelsang IP
(50.5721°N, 6.4398°E)
Time: 22:17:13
(UTC+01:00)

Transit 2A Rocket - Pass Details

Date: 16 December 2025
Orbit: 581 x 903 km, 66.7° (Epoch: 12 January)

Event Time Altitude Azimuth Distance (km) Brightness Sun altitude
Rises 16:14:00 0° 322° (NW) 3,535 8.4 1.2°
Reaches altitude 10° 16:16:33 10° 324° (NW) 2,588 7.7 0.8°
Maximum altitude 16:22:38 78° 51° (NE) 906 5.4 0.1°
Drops below altitude 10° 16:28:24 10° 138° (SE) 2,461 7.6 -0.6°
Sets 16:30:47 0° 140° (SE) 3,351 8.3 -0.9°
